Akron Canton, OH

3:02 AM EST on December 13, 2017 (GMT -0500)
Akron-Canton Regional

Weather History for KCAK - September, 2012

Change the Weather History Date:

Wednesday, September 12, 2012

  Actual Average Record
Temperature  
Mean Temperature 68 °F 65 °F  
Max Temperature 81 °F 75 °F 94 °F (1931)
Min Temperature 54 °F 55 °F 38 °F (1995)
Degree Days  
Heating Degree Days 0 3  
Month to date heating degree days 12 20  
Since 1 July heating degree days 14 40  
Cooling Degree Days 3 2  
Month to date cooling degree days 78 40  
Year to date cooling degree days 1031 622  
Growing Degree Days 18 (Base 50)    
Moisture  
Dew Point 50 °F    
Average Humidity 55    
Maximum Humidity 77    
Minimum Humidity 33    
Precipitation  
Precipitation 0.00 in 0.12 in 1.55 in (2015)
Month to date precipitation 1.93 1.42  
Year to date precipitation 25.34 28.62  
Snow  
Snow 0.00 in 0.00 in - ()
Month to date snowfall 0.0 0.0  
Since 1 July snowfall 0.0 0.0  
Since 1 September snowfall 0.0 0.0  
Snow Depth 0.00 in    
Sea Level Pressure  
Sea Level Pressure 30.27 in    
Wind  
Wind Speed 5 mph (South)    
Max Wind Speed 12 mph    
Max Gust Speed 16 mph    
Visibility 10 miles    
Events      
T = Trace of Precipitation, MM = Missing Value Source: NWS Daily Summary

Daily Weather History Graph

Daily Weather History Graph

Search for Another Location

Airport or City:

Trip Planner

Search our weather history database for the weather conditions in past years. The results will help you decide how hot, cold, wet, or windy it might be!

Date:

Astronomy

Sep. 12, 2012 Rise Set
Actual Time 7:03 AM EDT 7:39 PM EDT
Civil Twilight 6:36 AM EDT 8:06 PM EDT
Nautical Twilight 6:03 AM EDT 8:39 PM EDT
Astronomical Twilight 5:29 AM EDT 9:12 PM EDT
Moon 3:18 AM EDT (9/12) 5:27 PM EDT (9/12)
Length of Visible Light 13h 30m
Length of Day
12h 35m
Waning Crescent, 14% of the Moon is Illuminated
Sep 12
Waning Crescent
Sep 15
New
Sep 22
First Quarter
Sep 29
Full
Oct 8
Last Quarter

Hourly Weather History & Observations

Time (EDT) Temp. Dew Point Humidity Pressure Visibility Wind Dir Wind Speed Gust Speed Precip Events Conditions
12:51 AM 60.1 °F 48.9 °F 67% 30.25 in 10.0 mi Calm Calm - N/A   Partly Cloudy
1:51 AM 57.0 °F 48.9 °F 74% 30.25 in 10.0 mi South 4.6 mph - N/A   Clear
2:51 AM 57.0 °F 48.0 °F 72% 30.25 in 10.0 mi SSE 3.5 mph - N/A   Clear
3:51 AM 55.9 °F 48.0 °F 75% 30.25 in 10.0 mi SSE 4.6 mph - N/A   Clear
4:51 AM 55.9 °F 48.0 °F 75% 30.26 in 10.0 mi Calm Calm - N/A   Clear
5:51 AM 54.0 °F 46.9 °F 77% 30.27 in 10.0 mi SSE 4.6 mph - N/A   Clear
6:51 AM 55.0 °F 46.9 °F 74% 30.29 in 10.0 mi SSE 3.5 mph - N/A   Clear
7:51 AM 55.9 °F 48.0 °F 75% 30.30 in 8.0 mi Calm Calm - N/A   Partly Cloudy
8:51 AM 60.1 °F 50.0 °F 69% 30.31 in 10.0 mi South 3.5 mph - N/A   Partly Cloudy
9:51 AM 66.9 °F 50.0 °F 54% 30.32 in 10.0 mi SW 6.9 mph - N/A   Partly Cloudy
10:51 AM 71.1 °F 48.9 °F 45% 30.32 in 10.0 mi SW 5.8 mph - N/A   Partly Cloudy
11:51 AM 73.9 °F 51.1 °F 45% 30.31 in 10.0 mi WSW 6.9 mph - N/A   Partly Cloudy
12:51 PM 75.9 °F 48.9 °F 38% 30.30 in 10.0 mi Variable 4.6 mph - N/A   Partly Cloudy
1:51 PM 78.1 °F 48.9 °F 36% 30.28 in 10.0 mi South 5.8 mph - N/A   Partly Cloudy
2:51 PM 79.0 °F 48.9 °F 35% 30.26 in 10.0 mi South 4.6 mph - N/A   Scattered Clouds
3:51 PM 80.1 °F 50.0 °F 35% 30.24 in 10.0 mi South 9.2 mph - N/A   Scattered Clouds
4:51 PM 80.6 °F 48.2 °F 32% 30.25 in 10.0 mi SSW 9.2 mph - N/A   Scattered Clouds
5:51 PM 78.8 °F 51.8 °F 39% 30.25 in 10.0 mi SSW 8.1 mph - N/A   Scattered Clouds
6:51 PM 77.0 °F 53.1 °F 43% 30.24 in 10.0 mi SW 8.1 mph - N/A   Scattered Clouds
7:51 PM 71.1 °F 53.1 °F 53% 30.25 in 10.0 mi SW 4.6 mph - N/A   Scattered Clouds
8:51 PM 69.1 °F 53.1 °F 57% 30.26 in 10.0 mi SSW 6.9 mph - N/A   Scattered Clouds
9:51 PM 66.9 °F 53.1 °F 61% 30.27 in 10.0 mi South 4.6 mph - N/A   Scattered Clouds
10:51 PM 66.9 °F 53.1 °F 61% 30.27 in 10.0 mi SSE 4.6 mph - N/A   Scattered Clouds
11:51 PM 66.9 °F 53.1 °F 61% 30.27 in 10.0 mi South 3.5 mph - N/A   Scattered Clouds